[[{"header":{"parameterUnit":"m.s-1","parameterCategory":1,"la1":30.2991,"la2":30.254,"lo1":-89.0895,"lo2":-89.0444,"dy":0.0017,"dx":0.0017,"nx":28,"ny":28,"refTime":"2025-09-11T09:00:00:Z","depth":0,"parameterNumber":2,"parameterNumberName":"U-component_of_WINDS"},"data":[0,0,0,0,0,0,0,0,0,0,0,0,0,0,0,0,0,0,0,0,0,0,0,0,0,0,0,0,0,0,0,0,0,0,0,0,0,0,0,0,0,0,0,0,0,0,0,0,0,0,0,0,0,0,0,0,0,0,-0.2425,-0.2426,0,-0.2542,-0.2543,-0.2544,-0.2581,-0.258,-0.258,-0.2579,-0.2701,-0.2704,-0.2708,0,0,0,0,0,0,0,0,0,0,0,0,0,-0.2235,-0.2239,-0.2425,-0.2426,-0.2428,-0.2541,-0.2543,-0.2545,-0.2581,-0.258,-0.2579,-0.2579,-0.2699,-0.2704,-0.2708,0,0,0,0,0,0,0,0,0,0,0,0,0,-0.2331,-0.224,-0.2425,-0.2459,-0.2464,-0.2541,-0.2543,-0.2545,-0.2581,-0.258,-0.2579,-0.2579,-0.2698,-0.2703,-0.2709,-0.2761,0,0,-0.2726,-0.2729,0,0,0,0,0,0,0,0,-0.2326,-0.2338,-0.2453,-0.2457,-0.2462,-0.2546,-0.2521,-0.2617,-0.2581,-0.2537,-0.2579,-0.2578,-0.265,-0.2659,-0.2683,-0.2766,-0.2771,-0.2727,-0.273,-0.2732,-0.2734,0,0,0,0,0,0,0,-0.2319,-0.2334,-0.2471,-0.2454,-0.246,-0.247,-0.2483,-0.2539,-0.2597,-0.254,-0.2543,-0.2556,-0.2652,-0.2678,-0.2686,-0.2773,-0.2726,-0.2731,-0.2735,-0.2737,-0.2905,-0.2906,0,0,0,0,0,0,-0.2306,-0.2328,-0.2467,-0.2475,-0.2391,-0.2474,-0.2488,-0.252,-0.2596,-0.2607,-0.2557,-0.2558,-0.2668,-0.268,-0.2691,-0.2756,-0.2732,-0.2738,-0.2741,-0.2904,-0.2905,-0.2907,0,0,0,0,0,0,-0.2302,-0.2319,-0.2463,-0.2402,-0.2421,-0.2478,-0.2513,-0.2523,-0.2548,-0.2609,-0.2619,-0.2572,-0.2668,-0.2683,-0.2743,-0.2761,-0.274,-0.2745,-0.2903,-0.2904,-0.2906,-0.2888,0,0,0,0,0,0,-0.2297,-0.2317,-0.2336,-0.2402,-0.2424,-0.2512,-0.2514,-0.2525,-0.2557,-0.2559,-0.2626,-0.2636,-0.2669,-0.2734,-0.2748,-0.2769,-0.275,-0.2901,-0.2904,-0.2905,-0.2887,-0.2889,-0.289,0,0,0,0,0,-0.229,-0.2327,-0.2337,-0.2354,-0.245,-0.2513,-0.2526,-0.2562,-0.2559,-0.2579,-0.2618,-0.2634,-0.2757,-0.274,-0.2756,-0.2778,-0.29,-0.2903,-0.2905,-0.2886,-0.2888,-0.289,0,0,0,0,0,0,-0.2262,-0.2336,-0.2348,-0.2408,-0.2454,-0.2519,-0.2546,-0.2563,-0.2611,-0.2611,-0.2655,-0.2669,-0.2726,-0.2759,-0.2739,-0.2833,-0.2829,-0.2835,-0.2809,-0.2812,-0.2813,-0.2804,-0.2754,0,0,0,0,0,-0.2263,-0.2308,-0.237,-0.2417,-0.2439,-0.2489,-0.2517,-0.2541,-0.2591,-0.2611,-0.2654,-0.2702,-0.2752,-0.2784,-0.2833,-0.2892,-0.2907,-0.2915,-0.2917,-0.2918,-0.2922,-0.2956,-0.2961,-0.2915,-0.2915,-0.2914,0,0,-0.2266,-0.2311,-0.2337,-0.2412,-0.2451,-0.2497,-0.2505,-0.2553,-0.2587,-0.2618,-0.2678,-0.2711,-0.2768,-0.2828,-0.2857,-0.2857,-0.2938,-0.2921,-0.2921,-0.2925,-0.2959,-0.2964,-0.2967,-0.2916,-0.2916,-0.2916,0,0,-0.2293,-0.2332,-0.2375,-0.2414,-0.2471,-0.2504,-0.2514,-0.2577,-0.2601,-0.2661,-0.2685,-0.2727,-0.2812,-0.2851,-0.2882,-0.2925,-0.2941,-0.294,-0.2948,-0.298,-0.2984,-0.2987,-0.3003,-0.3008,-0.2944,-0.2944,-0.2944,0,-0.2289,-0.2358,-0.2395,-0.2442,-0.2475,-0.2505,-0.2549,-0.2585,-0.2656,-0.2678,-0.2677,-0.2784,-0.2824,-0.2894,-0.2904,-0.2928,-0.2942,-0.2932,-0.298,-0.2984,-0.2988,-0.3003,-0.3009,-0.2944,-0.2944,-0.2944,-0.2944,0,-0.235,-0.2398,-0.2426,-0.2493,-0.2529,-0.2574,-0.2619,-0.2651,-0.2672,-0.2705,-0.2767,-0.2816,-0.2876,-0.2894,-0.2915,-0.2967,-0.2965,-0.2972,-0.2969,-0.2991,-0.3006,-0.3012,-0.2943,-0.2943,-0.2943,-0.2943,0,0,-0.2363,-0.2451,-0.246,-0.2491,-0.2558,-0.2596,-0.2643,-0.2701,-0.2727,-0.2776,-0.2817,-0.2887,-0.2894,-0.2929,-0.2955,-0.2984,-0.3015,-0.2987,-0.2989,-0.2991,-0.3076,-0.307,-0.3076,-0.3026,-0.3028,-0.3029,-0.3071,0,-0.2399,-0.2484,-0.2519,-0.2587,-0.2632,-0.2661,-0.2703,-0.2748,-0.278,-0.2824,-0.286,-0.2909,-0.2914,-0.2936,-0.2965,-0.3005,-0.3033,-0.3002,-0.3065,-0.3067,-0.305,-0.3084,-0.3078,-0.3116,-0.3077,-0.3078,-0.3079,0,-0.2452,-0.25,-0.2573,-0.2634,-0.2654,-0.269,-0.2746,-0.2787,-0.284,-0.2861,-0.2901,-0.2925,-0.2977,-0.2971,-0.3042,-0.3021,-0.3049,-0.3072,-0.3075,-0.3082,-0.3074,-0.3092,-0.3128,-0.3134,-0.3088,-0.3088,-0.3087,0,-0.2454,-0.2537,-0.2592,-0.2617,-0.269,-0.2715,-0.2746,-0.2798,-0.2831,-0.288,-0.2902,-0.2956,-0.2986,-0.3028,-0.3067,-0.3059,-0.3135,-0.3133,-0.3155,-0.3154,-0.317,-0.3168,-0.3211,-0.3188,-0.3188,-0.3187,-0.3187,0,-0.2491,-0.2534,-0.2594,-0.2627,-0.2676,-0.2717,-0.2765,-0.2799,-0.2845,-0.2886,-0.2915,-0.2953,-0.3002,-0.3047,-0.3078,-0.3132,-0.3146,-0.3165,-0.3173,-0.3162,-0.316,-0.3181,-0.3179,-0.3189,-0.3189,-0.3188,-0.3188,0,-0.2501,-0.2543,-0.2604,-0.2668,-0.2685,-0.2719,-0.2774,-0.2808,-0.2841,-0.2893,-0.2907,-0.2961,-0.3015,-0.3058,-0.3128,-0.3149,-0.3207,-0.3215,-0.3188,-0.3192,-0.3212,-0.321,-0.327,-0.328,-0.325,-0.325,-0.3251,0,-0.2522,-0.2556,-0.2623,-0.2652,-0.2683,-0.273,-0.2763,-0.2805,-0.2839,-0.2901,-0.2928,-0.2983,-0.303,-0.3115,-0.3161,-0.3215,-0.3225,-0.3243,-0.3234,-0.3222,-0.3225,-0.3223,-0.3226,-0.3243,-0.3244,-0.3244,-0.3244,0,-0.2553,-0.2572,-0.2618,-0.2672,-0.2711,-0.2756,-0.2801,-0.2824,-0.2874,-0.291,-0.2965,-0.3001,-0.3073,-0.3129,-0.3188,-0.3221,-0.3241,-0.3246,-0.3254,-0.3244,-0.3227,-0.3236,-0.3191,-0.3245,-0.3245,-0.3244,-0.3244,-0.3244,-0.2569,-0.2601,-0.2653,-0.2704,-0.2743,-0.2784,-0.2819,-0.2857,-0.2904,-0.2965,-0.2987,-0.3044,-0.3097,-0.3178,-0.3212,-0.3257,-0.3259,-0.327,-0.3273,-0.3275,-0.3274,-0.322,-0.3268,-0.3268,-0.3268,-0.3268,-0.3268,0,-0.2602,-0.2637,-0.2684,-0.2746,-0.2786,-0.2801,-0.2852,-0.2885,-0.2934,-0.2981,-0.3027,-0.309,-0.3144,-0.3194,-0.325,-0.3277,-0.3288,-0.3291,-0.3289,-0.3296,-0.327,-0.3257,-0.3281,-0.3281,-0.3281,-0.3281,-0.3281,-0.3281,-0.2624,-0.2678,-0.2703,-0.2777,-0.2813,-0.2868,-0.2896,-0.2935,-0.2972,-0.3042,-0.3086,-0.3118,-0.3167,-0.3227,-0.3277,-0.3291,-0.331,-0.3311,-0.3326,-0.33,-0.3298,-0.3296,-0.3285,-0.3314,-0.3315,-0.3349,-0.335,-0.335]},{"header":{"parameterUnit":"m.s-1","parameterCategory":1,"la1":30.2991,"la2":30.254,"lo1":-89.0895,"lo2":-89.0444,"dy":0.0017,"dx":0.0017,"nx":28,"ny":28,"refTime":"2025-09-11T09:00:00:Z","depth":0,"parameterNumber":3,"parameterNumberName":"V-component_of_WINDS"},"data":[0,0,0,0,0,0,0,0,0,0,0,0,0,0,0,0,0,0,0,0,0,0,0,0,0,0,0,0,0,0,0,0,0,0,0,0,0,0,0,0,0,0,0,0,0,0,0,0,0,0,0,0,0,0,0,0,0,0,-2.9193,-2.9194,0,-2.9253,-2.9254,-2.9255,-2.921,-2.9208,-2.9206,-2.9204,-2.9262,-2.9266,-2.9269,0,0,0,0,0,0,0,0,0,0,0,0,0,-2.9035,-2.9039,-2.9193,-2.9194,-2.9195,-2.9253,-2.9254,-2.9255,-2.921,-2.9208,-2.9205,-2.9203,-2.9261,-2.9265,-2.9269,0,0,0,0,0,0,0,0,0,0,0,0,0,-2.9101,-2.904,-2.9193,-2.9179,-2.9179,-2.9253,-2.9254,-2.9255,-2.9211,-2.9208,-2.9205,-2.9202,-2.926,-2.9265,-2.927,-2.936,0,0,-2.9285,-2.9288,0,0,0,0,0,0,0,0,-2.9097,-2.9106,-2.9181,-2.918,-2.918,-2.9221,-2.922,-2.929,-2.9211,-2.9198,-2.9204,-2.92,-2.9251,-2.9256,-2.9274,-2.9363,-2.9365,-2.9286,-2.9289,-2.9291,-2.9293,0,0,0,0,0,0,0,-2.9092,-2.9103,-2.9217,-2.9182,-2.9181,-2.9169,-2.9175,-2.9233,-2.924,-2.9199,-2.9196,-2.9204,-2.925,-2.9269,-2.9275,-2.9366,-2.9286,-2.929,-2.9293,-2.9295,-2.9531,-2.9534,0,0,0,0,0,0,-2.909,-2.91,-2.9215,-2.9219,-2.913,-2.9174,-2.9181,-2.9211,-2.9239,-2.9241,-2.9206,-2.9202,-2.9262,-2.9269,-2.9277,-2.9384,-2.9291,-2.9296,-2.9299,-2.9528,-2.9532,-2.9535,0,0,0,0,0,0,-2.9086,-2.91,-2.9212,-2.9159,-2.9172,-2.918,-2.9214,-2.9213,-2.9233,-2.9245,-2.9246,-2.9225,-2.926,-2.927,-2.934,-2.9386,-2.9298,-2.9303,-2.9524,-2.9529,-2.9534,-2.96,0,0,0,0,0,0,-2.9082,-2.91,-2.9135,-2.916,-2.9175,-2.9276,-2.9217,-2.9217,-2.9242,-2.9236,-2.9263,-2.9264,-2.9259,-2.9333,-2.9345,-2.9391,-2.9307,-2.952,-2.9526,-2.9532,-2.9594,-2.9607,-2.9618,0,0,0,0,0,-2.9077,-2.915,-2.9137,-2.9151,-2.9219,-2.9278,-2.9287,-2.928,-2.9246,-2.9281,-2.9289,-2.9263,-2.9379,-2.934,-2.9354,-2.9402,-2.9517,-2.9525,-2.9532,-2.9589,-2.9604,-2.9617,0,0,0,0,0,0,-2.9129,-2.9153,-2.9139,-2.9223,-2.9249,-2.9271,-2.9314,-2.9296,-2.9332,-2.9325,-2.9314,-2.932,-2.9394,-2.9405,-2.9361,-2.9491,-2.9442,-2.9453,-2.9481,-2.9496,-2.9508,-2.9504,-2.9311,0,0,0,0,0,-2.9151,-2.9198,-2.9216,-2.9288,-2.9302,-2.9306,-2.9332,-2.9324,-2.935,-2.9361,-2.9374,-2.9399,-2.9441,-2.9469,-2.9508,-2.9595,-2.96,-2.9635,-2.9647,-2.9656,-2.9666,-2.9712,-2.9728,-2.9559,-2.9559,-2.9559,0,0,-2.9196,-2.9215,-2.9245,-2.9299,-2.9319,-2.9367,-2.9316,-2.9369,-2.9404,-2.9368,-2.9436,-2.9446,-2.9474,-2.9553,-2.9588,-2.9564,-2.9713,-2.9666,-2.9673,-2.9677,-2.9721,-2.9737,-2.9752,-2.9564,-2.9563,-2.9562,0,0,-2.9302,-2.9321,-2.9384,-2.9405,-2.9435,-2.9437,-2.9452,-2.9477,-2.9483,-2.955,-2.9524,-2.9565,-2.9638,-2.9659,-2.9679,-2.9793,-2.9771,-2.9806,-2.9868,-2.9913,-2.9927,-2.9939,-2.9979,-2.9994,-2.9815,-2.9815,-2.9815,0,-2.9354,-2.9426,-2.9418,-2.9473,-2.9498,-2.9469,-2.9531,-2.9551,-2.9593,-2.961,-2.9583,-2.9673,-2.969,-2.9773,-2.9801,-2.9818,-2.9834,-2.9803,-2.9926,-2.9937,-2.9948,-2.9987,-3.0002,-2.9819,-2.9818,-2.9818,-2.9818,0,-2.9488,-2.9539,-2.9585,-2.9628,-2.9657,-2.9716,-2.9715,-2.9746,-2.9736,-2.974,-2.9809,-2.9828,-2.987,-2.9889,-2.9879,-2.9971,-2.9956,-2.9927,-2.9879,-2.9969,-3.0005,-3.002,-2.9825,-2.9823,-2.9822,-2.9821,0,0,-2.963,-2.9667,-2.9684,-2.9703,-2.9734,-2.9773,-2.9829,-2.9872,-2.9899,-2.9928,-2.9975,-3.0037,-3.0011,-3.0034,-3.0025,-3.0066,-3.0155,-3.0032,-3.0033,-3.0055,-3.0258,-3.0279,-3.0297,-3.014,-3.0143,-3.0145,-3.0255,0,-2.9738,-2.9839,-2.9833,-2.9927,-2.9974,-2.9946,-2.9996,-3.002,-3.0025,-3.0065,-3.007,-3.0115,-3.0077,-3.009,-3.0129,-3.0136,-3.0196,-3.0128,-3.0183,-3.0186,-3.0178,-3.0316,-3.0339,-3.0442,-3.027,-3.0272,-3.0274,0,-2.9878,-2.9914,-3.0013,-3.0037,-3.0057,-3.0101,-3.014,-3.0178,-3.0204,-3.0205,-3.0231,-3.0216,-3.0273,-3.0222,-3.0299,-3.0254,-3.0276,-3.0283,-3.0286,-3.0292,-3.0236,-3.0325,-3.0475,-3.0491,-3.0296,-3.0294,-3.0292,0,-2.9972,-3.0045,-3.0113,-3.013,-3.016,-3.0192,-3.0206,-3.023,-3.0256,-3.0289,-3.0305,-3.0344,-3.0366,-3.0396,-3.0391,-3.0355,-3.047,-3.0419,-3.0472,-3.0472,-3.0498,-3.0497,-3.0654,-3.0512,-3.0511,-3.0511,-3.0511,0,-3.0094,-3.0156,-3.0156,-3.0199,-3.0267,-3.0259,-3.0326,-3.0336,-3.0357,-3.04,-3.0378,-3.0418,-3.041,-3.045,-3.0446,-3.0511,-3.0521,-3.0523,-3.0521,-3.0525,-3.0525,-3.054,-3.0533,-3.0515,-3.0514,-3.0513,-3.0513,0,-3.0212,-3.0214,-3.0287,-3.031,-3.0317,-3.0366,-3.0385,-3.0425,-3.0428,-3.0483,-3.0495,-3.0501,-3.0547,-3.0545,-3.0597,-3.0595,-3.0674,-3.0664,-3.0666,-3.0664,-3.0718,-3.0713,-3.0891,-3.0913,-3.0756,-3.0757,-3.0758,0,-3.029,-3.0337,-3.0365,-3.0393,-3.0409,-3.0454,-3.0481,-3.0474,-3.0503,-3.0536,-3.0571,-3.0616,-3.0651,-3.0725,-3.0733,-3.0773,-3.0764,-3.0823,-3.0769,-3.0772,-3.0765,-3.0763,-3.0767,-3.0834,-3.0836,-3.0837,-3.0838,0,-3.0428,-3.0427,-3.0467,-3.0508,-3.0541,-3.0572,-3.0601,-3.0625,-3.0621,-3.0654,-3.0702,-3.0729,-3.0782,-3.0826,-3.0864,-3.0877,-3.0857,-3.0855,-3.087,-3.0875,-3.0874,-3.0876,-3.0696,-3.0851,-3.085,-3.0849,-3.0848,-3.0848,-3.0529,-3.0569,-3.0596,-3.0641,-3.0662,-3.069,-3.0728,-3.0737,-3.0777,-3.0821,-3.0814,-3.0867,-3.0891,-3.094,-3.0956,-3.0997,-3.0976,-3.0997,-3.1002,-3.1008,-3.1014,-3.0867,-3.1004,-3.1003,-3.1003,-3.1003,-3.1002,0,-3.0667,-3.0682,-3.0724,-3.0766,-3.0801,-3.078,-3.0811,-3.0842,-3.0889,-3.0914,-3.0949,-3.1004,-3.1046,-3.1057,-3.1098,-3.1129,-3.112,-3.114,-3.1138,-3.1141,-3.103,-3.1014,-3.1145,-3.1145,-3.1145,-3.1145,-3.1145,-3.1145,-3.0743,-3.0811,-3.0813,-3.0891,-3.0905,-3.0958,-3.0978,-3.1002,-3.1022,-3.1085,-3.112,-3.1128,-3.1147,-3.1189,-3.1226,-3.1228,-3.1245,-3.1268,-3.1266,-3.1163,-3.1149,-3.1135,-3.112,-3.1271,-3.1271,-3.1373,-3.1374,-3.1375]}]]